Regional Weather Roundup
Issued by NWS

Home | Current Version | Previous Version | Text Only | Print | Product List | Glossary Off
Versions: 1 2 3 4 5 6 7 8 9 10 11 12 13 14 15 16 17 18 19 20 21 22 23 24 25 26 27 28 29 30 31 32 33 34 35 36 37 38 39 40 41 42 43 44 45 46 47 48 49 50

000
ASUS45 KBOU 281207
RWRCO

WEATHER ROUNDUP FOR COLORADO
NATIONAL WEATHER SERVICE DENVER/BOULDER CO
600 AM MDT FRI AUG 28 2015

NOTE: "FAIR" INDICATES FEW OR NO CLOUDS BELOW 12000 FEET WITH NO
SIGNIFICANT WEATHER AND/OR OBSTRUCTIONS TO VISIBILITY.

COZ001>005-013-030-031-281300-
...NORTHWEST COLORADO...

CITY           SKY/WX    TMP DP  RH WIND       PRES   REMARKS
CRAIG          CLEAR     45  43  93 SW5       30.35R
HAYDEN         NOT AVBL
MEEKER         CLEAR     49  46  90 NE7       30.35F
MOUNT WERNER   NOT AVBL
STEAMBOAT SPGS CLEAR     44  43  99 CALM      30.37S
WALDEN         PTCLDY    43  41  93 SE5       30.42S
$$

COZ006>008-011-281300-
...WEST CENTRAL VALLEYS...

CITY           SKY/WX    TMP DP  RH WIND       PRES   REMARKS
GRAND JUNCTION CLEAR     57  53  86 E6        30.24R
MONTROSE       CLEAR     53  50  89 S6        30.32S
EAGLE          CLEAR     48  46  93 CALM      30.39S
RIFLE          CLEAR     51  48  89 CALM      30.32R
DELTA          RAIN      56  52  84 CALM      30.28S
NUCLA          CLEAR     57  46  67 E6        30.32S
$$

COZ017>023-064>068-281300-
...SOUTHWEST COLORADO...

CITY           SKY/WX    TMP DP  RH WIND       PRES   REMARKS
DURANGO        CLEAR     49  47  93 E3        30.29S
CORTEZ         CLEAR     54  49  83 NE7       30.25S
PAGOSA SPRINGS CLEAR     49  47  93 CALM      30.36S
TELLURIDE      CLEAR     47  44  90 SE7       30.50S
WOLF CREEK PAS PTCLDY    41  36  81 NE13      30.66S
$$

COZ009-010-012-014-032>034-037-058>063-281300-
...CENTRAL COLORADO...

CITY           SKY/WX    TMP DP  RH WIND       PRES   REMARKS
ASPEN          CLEAR     45  42  89 SW7       30.41S
BUENA VISTA    CLEAR     49  40  72 CALM      30.40R
COPPER MTN     CLEAR     43  37  81 W15       30.64S
BERTHOUD PASS  HAZE      34  23  64 NW15G26   30.65R VSB<1/4 WCI  24
COTTONWOOD PAS CLEAR     52  34  50 NW3       30.51R
GUNNISON       PTCLDY    45  41  87 E3        30.45S
KREMMLING      PTCLDY    41  37  87 CALM      30.42R FOG
LEADVILLE      CLEAR     38  37  97 NE7       30.51S
MONARCH PASS   FOG       37  36  93 SW15G21   30.73F VSB<1/4
SALIDA         CLEAR     50  43  78 CALM      30.45S
SUNLIGHT       CLEAR     46  39  76 CALM      30.61R
WILKERSON PASS PTCLDY    45  32  61 NW5       30.61R
$$

COZ069>075-281300-
...SAN LUIS VALLEY/SANGRE DE CRISTO MOUNTAINS...

CITY           SKY/WX    TMP DP  RH WIND       PRES   REMARKS
ALAMOSA        PTCLDY    44  41  89 CALM      30.37R
LA VETA PASS   PTCLDY    45  43  93 MISG      30.51R
SAGUACHE       NOT AVBL
$$

COZ035-036-038>040-281300-
...NORTHERN COLORADO FRONT RANGE...

CITY           SKY/WX    TMP DP  RH WIND       PRES   REMARKS
DENVER INTL AP PTCLDY    59  53  80 SW7       30.19S
DMNS CITY PARK   N/A     61  54  77 E7        30.20R
AURORA         PTCLDY    57  57  99 SW5       30.22R
FRONT RANGE AP CLEAR     54  52  94 W7        30.20S
ERIE MUNI ARPT CLEAR     54  52  90 S3        30.18S
BOULDER MUN AP CLEAR     59  48  67 CALM      30.19R
CENTENNIAL     PTCLDY    59  53  80 W6        30.23R
BROOMFIELD     PTCLDY    61  50  67 W5        30.22S
FORT COLLINS   CLEAR     61  48  63 S5        30.19R
LONGMONT       CLEAR     56  51  83 W3        30.20S
$$

COZ041-046-047-076>085-087-088-281300-
...PIKES PEAK/PALMER DIVIDE AND SOUTHERN FOOTHILLS...

CITY           SKY/WX    TMP DP  RH WIND       PRES   REMARKS
COLO. SPRINGS  PTCLDY    63  48  58 NW14      30.24R
A. F. ACADEMY  PTCLDY    54  49  83 N10       30.26R
ELLICOTT       PTCLDY   N/A N/A N/A NE7       30.22S
FALCON         PTCLDY    58  51  76 MISG      30.28S
FORT CARSON    PTCLDY    56  49  77 N8        30.21R
LIMON          PTCLDY    57  54  89 W10       30.17S
MONUMENT HILL  CLEAR     50  48  93 W9        30.31R
TRINIDAD       CLEAR     57  53  86 W9        30.20R
$$

COZ042>045-048>051-090-091-281300-
...NORTHEAST COLORADO...

CITY           SKY/WX    TMP DP  RH WIND       PRES   REMARKS
GREELEY ARPT   CLEAR     57  48  72 N7        30.16R
AKRON          MOCLDY    60  56  86 W10       30.12R
BURLINGTON     CLEAR     57  53  86 W8        30.09R
WRAY           CLEAR     59  56  91 W5        30.05R
STERLING       MOCLDY    55  54  94 W6        30.08R
HOLYOKE        CLEAR     63  54  72 W9        30.04S
FORT MORGAN    CLOUDY    58  55  87 W8        30.14R
$$

COZ086-089-092>099-281300-
...SOUTHEAST COLORADO...

CITY           SKY/WX    TMP DP  RH WIND       PRES   REMARKS
PUEBLO         CLEAR     59  54  83 NW6       30.14R
LA JUNTA       CLEAR     61  58  90 SW7       30.11R
LAMAR          CLEAR     60  59  96 SW7       30.06S
SPRINGFIELD      N/A     59  56  89 NW7       30.11R
$$




USA.gov is the U.S. government's official web portal to all federal, state and local government web resources and services.